Погода в Ла-Рошели

Франция     46°09′37″N   1°08′30″W
темп.,
°C
ветер,
м/с
пор.,
м/с
влажн.,
%
обл.,
%
осадки,
мм/ч
давл.,
гПа
погр.,
м
8 мая, сб
сб823:00+13ю5782100 0.0 1018327
02:00+13ююз689367 0.0 1016273
05:00+14ююз6894100 0.0 1015256
08:00+14ююз578999 0.0 1014181
11:00+15ю578421 0.0 1014215
14:00+15ююз3476100 0.0 1012142
17:00+17ююв147664 0.0 1008144
20:00+18ю447621 0.0 100642
9 мая, вс
вс923:00+16ссз1180100 0.0 100511
02:00+16всв1186100 0.1 100221
05:00+15ююв588722 0.7 100193
08:00+15ююв101683100 0.7 1000327
11:00+16ююв111679100 0.0 1000338
14:00+16ю101674100 0.0 1000365
17:00+16ююз71279100 0.0 999283
20:00+13сз6985100 1.1 1001599
10 мая, пн
пн1023:00+13юз5686100 0.8 1003547
02:00+13юз91182100 0.9 1004824
05:00+13юз9118336 0.4 1005893
08:00+13юз910784 1.0 1007910
11:00+13юз810775 0.3 1008950
14:00+14юз7976100 0.7 1009910
17:00+14юз6877100 0.0 1008892
20:00+13зюз347441 0.0 1008592
11 мая, вт
вт1123:00+13юз347993 0.3 1009348
02:00+12зюз5781100 0.8 1009443
05:00+11юз5682100 4.8 1009492
08:00+12з8971100 5.5 1010984
11:00+13з1012658 0.1 10121423
14:00+13з1213725 0.1 10141264
17:00+13з1012715 0.1 10151251
20:00+13з9117173 0.1 10161138
12 мая, ср
ср1223:00+13зюз897270 0.0 1017974
02:00+12зюз8977100 0.3 1016791
05:00+12зюз7874100 1.2 1015869
08:00+13юз7773100 1.4 1015849
11:00+13ююз7976100 0.3 1014882
14:00+13ююз71078100 0.8 1013842
17:00+14ююз811765 0.0 1012599
20:00+14ююз9118384 0.2 1011889